Location: ?????????
(56.0854°N, 39.4963°E)
Time: 13:19:41
(UTC+00:00)

Daily predictions for brighter satellites

Satellite Brightness Start Highest point End
(mag) Time Altitude Azimuth Time Altitude Azimuth Time Altitude Azimuth
DEBRIS 4.0 18:00:14 10° SW 18:03:07 33° SSE 18:10:13 10° E
Cosmos 44 4.5 18:04:00 10° NW 18:09:12 44° NNE 18:14:20 10° E
Meteor 1-27 4.3 18:04:20 10° S 18:09:59 87° ESE 18:15:36 10° NNE
Cosmos 2278 3.9 18:04:24 10° NNW 18:10:10 72° NE 18:15:52 10° SE
COSMOS 2428 4.4 18:06:15 10° NNW 18:11:01 26° NNE 18:15:45 10° E
Cosmos 1486 Rocket 4.4 18:05:53 10° NNW 18:11:04 55° NE 18:16:15 10° SE
ADEOS 4.4 18:06:52 10° S 18:11:56 50° W 18:17:01 10° NNW
USA 186 1.6 18:10:02 10° S 18:12:45 67° WSW 18:15:31 10° NNW
Cosmos 1758 Rocket 3.6 18:08:39 10° N 18:13:03 71° ENE 18:17:27 10° SSE
SL-16 R/B 2.3 18:09:32 10° NW 18:15:16 90° NE 18:20:57 10° SSE
Cosmos 1302 Rocket 4.0 18:10:59 10° SSW 18:16:08 74° ESE 18:21:21 10° NNE
ISS -3.0 18:13:40 10° SW 18:16:43 33° SSE 18:19:45 10° ESE
CZ-4C R/B 2.0 18:12:44 10° SW 18:17:16 90° NNW 18:23:16 10° NE
Cosmos 2016 Rocket 4.1 18:11:07 10° SSW 18:17:22 85° W 18:23:36 10° N
EP 1 4.2 18:15:24 10° NW 18:18:03 83° SW 18:20:41 10° SE
Cosmos 724 4.3 18:13:15 10° SW 18:19:14 78° SE 18:25:09 10° NE
NOSS 3 (A) 3.8 18:18:06 10° NW 18:20:08 84° NE 18:22:41 10° SE
SL-08 R/B 3.4 18:17:19 10° NNE 18:22:12 90° WSW 18:26:58 10° SSW
CZ-4B R/B 2.5 18:20:32 10° SSE 18:23:54 75° ENE 18:27:24 10° NNW
Cosmos 1825 Rocket 4.5 18:22:41 10° N 18:26:41 35° ENE 18:30:41 10° SE
NOSS 3-3 (C) 4.1 18:24:47 10° SSW 18:29:53 46° SE 18:36:01 10° NE
COSMOS 2406 3.6 18:24:57 10° S 18:30:22 45° ESE 18:35:49 10° NE
Cosmos 1980 Rocket 4.2 18:27:12 10° NW 18:31:37 23° WSW 18:36:00 10° SSW
Meteor 1-20 Rocket 4.3 18:26:27 10° NNW 18:32:03 90° W 18:37:43 10° SSE
USA 306 2.1 18:29:49 10° SW 18:32:30 32° S 18:34:18 10° ESE
Terra 3.7 18:31:48 10° SSW 18:35:48 27° W 18:39:49 10° NNW
Helios 1A Rocket 4.3 18:33:39 10° N 18:36:31 32° WNW 18:39:21 10° SW
YAOGAN 11 4.1 18:32:12 10° NNE 18:36:39 86° ESE 18:41:07 10° SSW
Cosmos 1602 Rocket 3.6 18:33:13 10° N 18:37:32 73° ENE 18:41:51 10° SSE
NOSS 3-4 (A) 3.8 18:33:27 10° NW 18:39:52 79° SW 18:47:24 10° SE
Cosmos 2333 Rocket 2.4 18:34:43 10° NW 18:40:24 72° WSW 18:46:05 10° SSE
NOSS 3-4 (C) 3.8 18:34:04 10° NW 18:40:31 79° SW 18:48:03 10° SE
CZ-4 R/B 4.2 18:41:55 10° W 18:42:49 11° W 18:43:43 10° WNW
Cosmos 2061 Rocket 4.2 18:41:14 10° SSW 18:47:28 81° WNW 18:53:50 10° N
Cosmos 1933 3.3 18:45:02 10° S 18:48:47 60° E 18:52:34 10° NNE
Cosmos 1464 Rocket 4.4 18:44:37 10° SSE 18:50:26 47° E 18:56:21 10° NNE
Cosmos 44 Rocket 4.1 18:45:41 10° WSW 18:50:47 61° NW 18:55:59 10° NE
ATLAS 2AS CENTAUR R/B 3.7 18:45:02 10° W 18:51:44 51° NNW 18:58:22 10° ENE
Cosmos 1626 Rocket 4.4 18:49:55 10° NNW 18:54:07 48° W 18:58:19 10° SSW
Cosmos 2360 Rocket 2.3 18:52:47 10° NW 18:58:31 84° SW 19:03:37 13° SSE
Cosmos 1607 4.0 18:52:22 10° SW 18:58:35 85° NW 19:04:56 10° NE
SPOT 3 Rocket 4.0 18:53:34 10° S 18:58:38 58° WSW 19:03:43 10° NNW
Cosmos 1805 2.7 18:56:12 10° NNW 18:59:29 89° E 19:02:14 14° SSE
ARIANE 5 R/B 4.4 18:57:48 10° ESE 19:01:11 22° NE 19:04:37 10° N
Ariane Rocket 3.3 18:57:14 10° S 19:02:15 66° WSW 19:07:20 10° NNW
Cosmos 1076 Rocket 3.8 18:58:23 10° N 19:02:35 52° ENE 19:06:00 15° SSE
Cosmos 2098 Rocket 3.3 18:58:44 10° S 19:03:24 55° E 19:07:25 10° NNE
Cosmos 2333 4.3 18:57:43 10° NW 19:03:28 88° WSW 19:08:32 14° SSE
Meteor 1-25 Rocket 4.4 18:58:17 10° NNW 19:03:57 71° W 19:09:31 10° S
BREEZE-M DEB (TANK) 2.7 19:03:37 10° SW 19:05:26 18° S 19:05:38 17° S
Cosmos 220 Rocket 4.1 19:04:33 10° S 19:08:29 50° ESE 19:12:29 10° NE
Cosmos 1536 4.0 19:06:33 10° N 19:09:46 28° ENE 19:12:23 13° ESE
Cosmos 2219 Rocket 2.2 19:06:59 10° NW 19:12:42 85° NE 19:17:33 15° SE
Helios 1A 4.0 19:09:54 10° NE 19:13:15 26° E 19:15:28 16° SE
Cosmos 1606 Rocket 3.7 19:12:21 13° S 19:16:02 55° E 19:20:15 10° NNE
Cosmos 2151 4.1 19:13:01 10° NNW 19:16:50 37° W 19:20:37 10° SSW
Cosmos 1763 Rocket 4.3 19:15:44 14° SSE 19:19:41 35° ESE 19:24:26 10° NE
Helios 1B rocket 2.9 19:18:06 16° SE 19:20:33 38° ENE 19:23:51 10° N
Okean 1 3.4 19:18:41 17° SSE 19:21:11 47° E 19:24:40 10° NNE
Okean O Rocket 3.8 19:18:19 10° SW 19:21:25 19° W 19:24:32 10° NW
Cosmos 990 Rocket 4.0 19:18:34 10° NNW 19:23:46 88° ENE 19:27:52 17° SSE
Cosmos 1726 Rocket 3.7 19:22:24 16° SSE 19:25:20 49° E 19:29:16 10° NNE
Cosmos 2034 Rocket 4.2 19:22:28 13° S 19:28:01 59° E 19:34:14 10° NNE
TSX-5 3.9 19:26:15 10° NNW 19:29:15 46° NE 19:31:39 15° ESE
Cosmos 2322 Rocket 2.7 19:23:56 10° NW 19:29:25 53° WSW 19:33:58 15° S
Okean 1-7 Rocket 3.9 19:25:21 10° NNW 19:29:46 62° W 19:33:33 14° S
RESURS DK-1 3.3 19:26:43 10° NNW 19:30:31 41° NE 19:34:01 12° ESE
Cosmos 1461 2.5 19:27:04 10° SW 19:30:44 65° SE 19:34:22 10° NE
Cosmos 1470 4.1 19:29:11 10° NNE 19:31:54 23° ENE 19:33:54 14° ESE
CZ-2C R/B 3.6 19:30:01 12° SSW 19:32:09 26° W 19:34:36 10° NW
Cosmos 2082 Rocket 3.3 19:31:11 10° WSW 19:36:44 49° NW 19:42:18 10° NNE
Cosmos 1975 4.2 19:37:36 10° N 19:40:42 25° ENE 19:43:05 14° ESE
Cosmos 1437 Rocket 3.8 19:37:31 10° SW 19:40:53 39° WNW 19:44:19 10° N
Cosmos 1503 Rocket 4.4 19:36:47 10° NW 19:41:51 54° WSW 19:45:44 17° S
Nadezhda 4 Rocket 4.3 19:36:23 10° NNW 19:42:26 63° W 19:47:52 13° S
Cosmos 909 Rocket 4.3 19:36:43 10° SW 19:42:59 75° NW 19:49:51 10° NE
Meteor 1-26 Rocket 4.5 19:42:46 17° SSE 19:46:53 55° E 19:52:27 10° NNE
Cosmos 2237 Rocket 3.4 19:42:14 10° NNW 19:47:33 38° NE 19:52:49 10° ESE
NOSS 3-3 (A) 4.1 19:43:44 10° WSW 19:49:16 74° NNW 19:56:06 10° NE
Cosmos 44 3.5 19:45:18 10° NW 19:50:43 73° SW 19:54:37 19° SE
Cosmos 1634 Rocket 4.3 19:48:17 18° SSE 19:52:47 52° E 19:58:47 10° NNE
ISS -3.2 19:50:00 10° WSW 19:53:06 36° S 19:54:30 24° SE
Cosmos 1354 Rocket 4.3 19:50:18 10° NNW 19:55:28 59° WSW 19:59:07 19° S
COSMOS 2428 2.9 19:50:31 10° NNW 19:56:15 70° NE 20:00:53 16° SE
Cosmos-2242 3.1 19:54:02 21° S 19:56:35 58° E 20:00:39 10° NNE
SL-16 R/B 4.0 19:54:25 10° NW 19:58:40 22° WSW 20:02:54 10° SSW
USA 306 3.1 19:57:17 10° WSW 19:58:04 16° WSW 19:58:04 16° WSW
CZ-2C R/B 4.1 19:56:13 10° ESE 20:00:38 28° NE 20:05:02 10° N
KORONAS-FOTON 4.2 19:59:46 25° SE 20:01:11 39° E 20:04:24 10° NNE
USA 290 2.0 20:01:14 19° SSW 20:03:23 87° ESE 20:06:32 10° NNE
Cosmos 2026 Rocket 4.2 19:59:04 10° NNW 20:05:26 72° W 20:10:23 17° S
Cosmos 1707 1.9 20:04:33 33° S 20:05:38 66° E 20:08:28 10° NNE
CZ-4C R/B 3.5 20:01:11 10° W 20:06:04 45° N 20:12:26 10° ENE
Cosmos 372 Rocket 3.9 20:02:08 10° NNW 20:07:18 88° WSW 20:10:44 21° SSE
Cosmos 1953 Rocket 4.1 20:05:33 10° NNW 20:09:47 50° W 20:12:42 19° SSW
COSMOS 2406 4.1 20:09:05 10° WSW 20:14:40 51° NW 20:20:17 10° NNE
Aureole 1 Rocket 4.0 20:10:46 10° NNW 20:16:11 65° WSW 20:20:45 20° S
Meteor 1-14 Rocket 4.3 20:12:04 10° NNW 20:17:41 74° ENE 20:21:27 21° SSE
Cosmos 1271 Rocket 3.1 20:19:21 27° SE 20:20:36 38° E 20:23:46 10° NNE
NOSS 3-3 (C) 4.4 20:15:00 10° WSW 20:20:37 65° NNW 20:27:34 10° NE
Cosmos 2221 3.4 20:18:37 22° SE 20:20:37 35° E 20:24:28 10° NNE
GP-B 4.3 20:17:59 10° NNE 20:21:53 31° E 20:24:23 18° SE
Cosmos 540 Rocket 3.4 20:18:42 15° SSW 20:23:04 84° ESE 20:28:15 10° NNE
Cosmos 2058 Rocket 3.0 20:20:44 22° S 20:23:32 87° E 20:27:54 10° NNE
Cosmos 2333 Rocket 4.3 20:20:16 10° WNW 20:23:45 17° W 20:27:15 10° SW
Cosmos 1937 Rocket 3.5 20:19:56 10° NNW 20:25:07 77° ENE 20:28:40 20° SE
Cosmos 1766 3.9 20:24:49 10° NNW 20:27:48 35° W 20:29:18 22° SW
Geosat 4.0 20:24:47 10° NE 20:29:50 89° SE 20:34:38 11° SW
Spot 4 3.8 20:28:46 24° SSE 20:31:42 82° WSW 20:36:33 10° NNW
ARGOS Delta rocket 4.4 20:27:31 10° NNE 20:32:30 53° E 20:35:39 23° SSE
BREEZE-M R/B 4.4 20:26:32 10° W 20:33:43 48° SSW 20:39:17 10° SE
Cosmos 468 Rocket 4.1 20:30:46 21° S 20:34:19 65° ESE 20:39:32 10° NNE
Cosmos 1842 2.7 20:33:12 35° S 20:34:21 69° E 20:37:31 10° NNE
Cosmos 1833 4.2 20:29:39 10° SSW 20:35:14 90° NNW 20:40:54 10° NE
CZ-2C R/B 4.3 20:31:33 10° NNE 20:36:46 35° E 20:40:12 19° SSE
ARIANE 5 R/B 2.7 20:34:30 25° S 20:37:03 73° WSW 20:41:34 10° NNW
Cosmos 2297 Rocket 3.6 20:35:27 17° SE 20:37:58 23° ESE 20:42:15 10° NE
ALOS 2 2.6 20:35:46 25° SSE 20:38:18 84° WSW 20:42:43 10° NNW
Meteor 2-6 Rocket 4.4 20:35:52 21° S 20:40:02 78° E 20:46:00 10° NNE
USA 234 4.0 20:35:34 10° ENE 20:41:21 32° SE 20:44:47 21° S
Cosmos 2360 Rocket 4.0 20:37:43 10° NW 20:41:43 20° W 20:45:21 11° SW
Cosmos 2322 3.9 20:36:12 10° NW 20:41:50 62° WSW 20:45:23 23° S
ATLAS 2AS CENTAUR R/B 3.8 20:37:13 10° WNW 20:43:48 47° N 20:50:19 10° E
Cosmos 1536 3.8 20:41:41 10° NNW 20:45:02 34° W 20:46:54 20° SW
Helios 1A 3.8 20:44:21 10° N 20:48:05 43° WNW 20:51:11 14° SW
Helios 1B rocket 3.7 20:52:03 17° SW 20:53:39 24° W 20:56:34 10° NW
PSLV R/B 3.7 20:50:49 10° NNE 20:55:03 62° ESE 20:57:18 27° S
Cosmos 2219 Rocket 3.7 20:51:38 10° NW 20:56:02 24° WSW 20:59:14 15° SW
Cosmos 1898 Rocket 3.8 20:51:38 10° NW 20:56:40 53° WSW 20:59:35 24° S
SeaSat 1 2.9 20:55:07 12° SE 20:59:37 60° NE 21:04:28 10° NNW
Cosmos 1766 Rocket 4.1 20:56:42 10° N 21:00:54 49° ENE 21:03:33 21° SE
Meteor 1-19 Rocket 4.4 20:57:24 23° S 21:01:08 71° E 21:07:04 10° NNE
Cosmos 1763 Rocket 4.2 20:56:04 10° SW 21:01:14 53° NW 21:06:25 10° NNE
Cosmos 1470 3.4 21:02:51 10° NNW 21:05:53 34° W 21:07:06 25° SW
Cosmos 1461 4.4 21:03:53 10° W 21:07:15 32° NNW 21:10:35 10° NE
RESURS DK-1 3.1 21:04:12 10° NW 21:07:51 35° WSW 21:09:14 27° SSW
Cosmos 2322 Rocket 4.4 21:10:31 10° WNW 21:12:12 11° W 21:13:52 10° WSW
NOSS 0 Rocket 4.1 21:06:19 10° NW 21:12:21 56° WSW 21:16:09 23° S
NOSS 8 (H) 4.3 21:11:32 10° WNW 21:14:19 46° SW 21:14:47 41° SSW
BREEZE-M DEB (TANK) 4.0 21:09:16 10° W 21:15:24 36° SSW 21:20:06 10° SE
Cosmos 1975 3.5 21:12:21 10° NNW 21:15:48 38° W 21:17:20 25° SW
Cosmos 2084 4.2 21:11:59 10° NW 21:16:03 50° NNE 21:20:04 10° ESE
Intercosmos 24 3.7 21:13:56 10° NNW 21:18:11 89° ENE 21:19:53 30° SSE
MetOp-A 3.9 21:16:05 25° S 21:18:54 70° WSW 21:23:34 10° NNW
SL-16 R/B 3.1 21:13:39 10° NNW 21:19:10 48° NE 21:24:41 10° ESE
Lacrosse 4 Rocket 2.9 21:25:45 19° SE 21:26:51 21° ESE 21:29:56 10° ENE
ISS -1.4 21:26:54 10° WSW 21:27:26 13° WSW 21:27:26 13° WSW
Cosmos 2237 Rocket 2.3 21:26:20 10° NW 21:31:59 65° WSW 21:35:41 22° SSE
Cosmos 841 Rocket 3.5 21:29:04 22° SSW 21:32:34 90° NW 21:37:51 10° NNE
Meteor 1-11 Rocket 4.1 21:30:01 10° NNW 21:35:32 52° W 21:38:54 22° SSW
Cosmos 1980 3.9 21:30:26 10° NW 21:36:00 58° WSW 21:39:29 23° S
Cosmos 1812 Rocket 3.8 21:33:38 24° SSW 21:36:11 66° WNW 21:40:37 10° N
COSMOS 2428 3.8 21:35:12 10° NW 21:40:06 30° WSW 21:42:51 20° SSW
Meteor 2-20 Rocket 4.4 21:36:40 23° S 21:40:21 70° E 21:46:03 10° NNE
CZ-2C R/B 2.7 21:37:19 24° S 21:40:33 67° WSW 21:45:45 10° NNW
ACS3 Solar Sail 2.6 21:35:10 10° NNE 21:40:46 40° E 21:45:00 17° SSE
CZ-4C R/B 4.1 21:37:42 10° NNE 21:40:47 32° E 21:42:10 23° SE
Meteor 2-4 Rocket 3.8 21:41:22 23° S 21:44:45 64° E 21:50:16 10° NNE
Meteor 1-10 Rocket 4.4 21:40:49 21° SSW 21:44:55 74° WNW 21:50:54 10° NNE
Cosmos 2227 Rocket 3.3 21:44:30 18° SSE 21:47:43 31° ESE 21:52:39 10° NE
Meteor 2-20 4.5 21:45:33 22° SSW 21:49:44 80° WNW 21:55:52 10° N
Okean 3 Rocket 4.0 21:45:57 10° N 21:50:26 60° ENE 21:53:40 18° SSE
Cosmos 1271 Rocket 4.4 21:52:42 13° WSW 21:54:57 22° WNW 21:57:40 10° N
CZ-4C R/B 3.6 21:49:51 10° WNW 21:55:24 48° NNE 22:02:37 10° E
Cosmos 192 4.3 21:51:16 10° NNW 21:56:11 69° WSW 21:59:23 22° SSE
Cosmos 2221 3.7 21:54:54 16° SW 21:57:40 33° WNW 22:01:31 10° N
GP-B 3.9 21:54:56 10° N 21:59:02 40° W 22:01:32 21° SW
Cosmos 2263 Rocket 3.6 21:56:11 15° SSE 21:59:36 25° ESE 22:04:07 10° NE
Meteor 1-27 Rocket 3.8 21:56:56 22° SSW 22:00:52 81° WNW 22:06:38 10° NNE
Cosmos 1842 Rocket 3.7 22:01:31 24° S 22:04:03 65° E 22:08:26 10° NNE
Cosmos 1238 Rocket 2.9 22:02:31 27° SSW 22:04:38 76° WNW 22:09:03 10° N
Cosmos 1943 4.3 21:59:32 10° NNW 22:04:57 44° NE 22:10:19 10° ESE
Cosmos 1805 Rocket 4.0 22:06:06 10° N 22:10:25 58° ENE 22:13:48 16° SSE
Sich 1 2.9 22:09:34 10° NNW 22:13:45 82° W 22:16:18 23° S
Iridium 4 Rocket 3.8 22:11:57 21° S 22:15:53 88° W 22:21:45 10° N
Landsat 5 3.4 22:12:37 10° NNE 22:16:47 79° WNW 22:19:05 25° SSW
CZ-2C R/B 3.7 22:11:13 10° N 22:16:48 58° WNW 22:21:10 17° SW
SL-19 R/B 4.1 22:19:08 19° SE 22:21:11 61° ENE 22:24:25 10° NNW
Cosmos 2297 Rocket 2.2 22:17:12 19° SW 22:21:20 88° NW 22:27:02 10° NE
Cosmos 1745 Rocket 4.4 22:16:18 10° N 22:22:23 61° ENE 22:28:28 10° SSE
Cosmos 1655 Rocket 4.4 22:16:26 10° NNW 22:22:26 52° W 22:26:42 20° SSW
USA 281 4.4 22:16:51 10° ESE 22:23:00 45° NE 22:29:11 10° NNW
Cosmos 1758 3.0 22:19:25 10° NNW 22:23:04 86° WSW 22:25:11 24° S
USA 234 3.2 22:18:34 10° ENE 22:25:07 70° SSE 22:31:40 10° WSW
Cosmos 1408 Rocket 3.4 22:30:45 10° NNW 22:35:04 85° WSW 22:38:12 18° S
ATLAS 2AS CENTAUR R/B 2.8 22:28:38 10° NW 22:35:28 80° NE 22:42:17 10° ESE
Cosmos 1340 Rocket 2.7 22:32:34 10° NNW 22:36:26 85° ENE 22:39:16 17° SSE
Meteor 2-10 Rocket 4.1 22:32:00 10° NNW 22:37:13 47° W 22:40:59 19° SSW
SeaSat 1 3.3 22:34:43 21° SSW 22:37:15 33° WSW 22:41:41 10° NW
Iridium 45 4.4 22:37:58 24° S 22:39:58 84° W 22:43:25 10° N
SL-14 R/B 3.1 22:38:08 23° S 22:40:25 89° ESE 22:44:14 10° NNE
Cosmos 1125 Rocket 3.5 22:38:36 10° NNW 22:43:53 69° WSW 22:48:47 12° SSE
BlueWalker 3 2.8 22:43:32 23° S 22:44:35 27° SSE 22:47:38 10° E
Cosmos 1066 Rocket 4.3 22:40:54 19° SSW 22:44:50 68° WNW 22:50:22 10° NNE
DELTA 2 DEB (DPAF) 4.0 22:50:12 10° N 22:53:41 52° WNW 22:55:55 20° SW
Meteor 1-18 Rocket 4.3 22:49:51 18° SSW 22:54:04 74° WNW 22:59:47 10° NNE
Cosmos 2084 3.5 22:50:41 10° WNW 22:54:40 47° SW 22:58:37 10° SSE
Cosmos 2150 Rocket 4.4 22:56:02 10° NNW 23:01:29 71° ENE 23:06:55 10° SE
Cosmos 1953 2.5 22:59:22 10° N 23:03:00 60° ENE 23:06:36 10° SSE
Cosmos 1814 Rocket 4.1 22:59:05 17° SW 23:03:08 72° WNW 23:08:25 10° NNE
SL-16 R/B 2.5 22:57:53 10° NW 23:03:22 48° WSW 23:08:40 11° S
Lacrosse 4 Rocket 1.4 23:01:08 17° SW 23:04:13 72° NW 23:08:19 10° NE
BREEZE-M DEB (TANK) 3.9 23:07:01 19° SSW 23:07:28 19° S 23:11:12 10° SE
CZ-2D R/B 4.3 23:04:00 10° NE 23:08:02 21° E 23:12:04 10° SE
IDEFIX/ARIANE 42P 2.9 23:02:52 10° NNE 23:08:03 61° ESE 23:12:47 12° S
Cosmos 2219 3.9 23:04:46 13° S 23:09:27 44° ESE 23:14:46 10° NE
NPP 4.2 23:07:56 10° NNE 23:13:14 53° E 23:18:30 10° S
CZ-4C R/B 4.4 23:10:38 10° N 23:13:31 27° WNW 23:15:55 13° WSW
Cosmos 2237 Rocket 4.0 23:11:56 10° WNW 23:14:58 15° W 23:17:27 11° SW
H-2A R/B 4.3 23:11:50 10° NE 23:15:51 21° E 23:19:52 10° SE
Cosmos 2285 Rocket 4.4 23:10:10 10° NNW 23:16:29 69° ENE 23:22:47 10° SE
Cosmos 1633 Rocket 3.3 23:13:10 10° N 23:17:29 67° ENE 23:21:47 10° SSE
Cosmos 1470 Rocket 4.5 23:13:39 10° N 23:17:54 49° ENE 23:22:08 10° SSE
Cosmos 1151 Rocket 3.1 23:15:33 17° SSW 23:18:49 64° WNW 23:23:09 10° N
Cosmos 1500 Rocket 4.3 23:15:28 10° NNW 23:19:35 39° W 23:22:48 15° SSW
S3M 4.1 23:14:46 12° S 23:20:37 81° E 23:26:47 10° NNE
PSLV R/B 4.2 23:17:38 10° N 23:21:25 52° WNW 23:24:24 16° SW
ACS3 Solar Sail 2.2 23:17:32 10° N 23:23:18 51° WNW 23:28:30 13° SW
Meteor 1-22 Rocket 4.3 23:18:53 10° NNW 23:24:45 71° W 23:30:20 10° S
CENTAUR R/B 4.1 23:21:05 10° SSE 23:25:38 25° ESE 23:31:01 10° ENE
Cosmos 2315 Rocket 4.2 23:22:27 10° S 23:28:48 75° E 23:35:08 10° NNE
Cosmos 2227 Rocket 2.4 23:26:17 13° SW 23:31:25 68° NW 23:37:06 10° NNE
DMSP B5D2-2 4.3 23:27:22 10° SSE 23:32:33 74° ENE 23:37:47 10° NNW
H-2A R/B 3.6 23:31:19 10° SE 23:34:39 38° ENE 23:38:03 10° N
Envisat 4.2 23:30:56 10° NNE 23:35:39 37° E 23:40:21 10° SSE
Cosmos 2263 Rocket 2.2 23:37:50 12° SW 23:42:59 79° NW 23:48:37 10° NNE
MSX 3.9 23:38:00 10° NNE 23:43:49 81° WNW 23:49:33 10° SSW
BREEZE-M DEB (TANK) 3.3 23:36:27 10° WSW 23:44:05 38° S 23:47:14 10° ESE
CZ-4C R/B 2.9 23:37:59 10° NW 23:44:20 87° NE 23:52:32 10° SE
Cosmos 1709 Rocket 4.2 23:38:55 10° NNW 23:44:55 55° W 23:50:57 10° SSW
SL-16 R/B 4.2 23:42:09 10° ESE 23:47:49 38° NE 23:53:30 10° N
Cosmos 1666 Rocket 3.7 23:44:36 10° NNW 23:48:58 57° W 23:53:19 10° S
Cosmos 1943 3.4 23:43:40 10° NW 23:49:07 52° WSW 23:54:32 10° S
Meteor 1-15 Rocket 4.4 23:44:59 10° NNW 23:50:51 65° W 23:56:41 10° S
Cosmos 1867 3.6 23:45:55 10° NW 23:51:18 61° SW 23:56:41 10° SSE
